[[{"header":{"parameterUnit":"m.s-1","parameterCategory":2,"la1":30.2991,"la2":30.254,"lo1":-89.0895,"lo2":-89.0444,"dy":0.0017,"dx":0.0017,"nx":28,"ny":28,"refTime":"2025-12-25T03:00:00:Z","depth":"0","parameterNumber":2,"parameterNumberName":"U-component_of_CURRENTS"},"data":[0,0,0,0,0,0,0,0,0,0,0,0,0,0,0,0,0,0,0,0,0,0,0,0,0,0,0,0,0,0,0,0,0,0,0,0,0,0,0,0,0,0,0,0,0,0,0,0,0,0,0,0,0,0,0,0,0,0,0.3677,0.3678,0,0.3671,0.3671,0.367,0.3646,0.3646,0.3646,0.3646,0.358,0.3578,0.3576,0,0,0,0,0,0,0,0,0,0,0,0,0,0.3652,0.3652,0.3677,0.3678,0.3678,0.3671,0.3671,0.367,0.3646,0.3646,0.3646,0.3646,0.358,0.3578,0.3576,0,0,0,0,0,0,0,0,0,0,0,0,0,0.3651,0.3652,0.3677,0.3669,0.3669,0.3671,0.3671,0.367,0.3646,0.3646,0.3646,0.3646,0.3581,0.3579,0.3576,0.3563,0,0,0.3568,0.3567,0,0,0,0,0,0,0,0,0.3651,0.3651,0.367,0.367,0.3669,0.3664,0.3638,0.3633,0.3646,0.365,0.3646,0.3646,0.3606,0.3601,0.3594,0.356,0.3557,0.3568,0.3567,0.3565,0.3565,0,0,0,0,0,0,0,0.3651,0.3652,0.367,0.3671,0.367,0.3661,0.366,0.3636,0.3623,0.3649,0.3649,0.3656,0.3604,0.3596,0.3592,0.3556,0.3568,0.3566,0.3564,0.3563,0.3519,0.3519,0,0,0,0,0,0,0.3663,0.3652,0.367,0.367,0.3666,0.3662,0.3661,0.3662,0.3625,0.3621,0.3656,0.3655,0.3601,0.3595,0.359,0.3594,0.3565,0.3563,0.3562,0.3519,0.3519,0.3519,0,0,0,0,0,0,0.3663,0.3665,0.367,0.3665,0.3666,0.3663,0.3664,0.3662,0.3658,0.3632,0.3626,0.3656,0.3601,0.3593,0.3575,0.359,0.3562,0.356,0.3518,0.3519,0.3519,0.3588,0,0,0,0,0,0,0.3662,0.3664,0.3668,0.3666,0.3667,0.3678,0.3664,0.3662,0.3665,0.3663,0.3629,0.3623,0.36,0.3579,0.3573,0.3586,0.3558,0.3518,0.3518,0.3519,0.3585,0.3591,0.3595,0,0,0,0,0,0.3661,0.3661,0.3668,0.3671,0.3672,0.3679,0.3678,0.3672,0.3665,0.3666,0.3644,0.3624,0.3579,0.3577,0.357,0.3583,0.3517,0.3518,0.3519,0.3583,0.359,0.3595,0,0,0,0,0,0,0.3641,0.366,0.3666,0.367,0.3681,0.3677,0.3677,0.3676,0.366,0.3656,0.3626,0.3618,0.3611,0.3584,0.3583,0.3571,0.3545,0.3545,0.3597,0.3603,0.3608,0.361,0.3556,0,0,0,0,0,0.3644,0.3653,0.3669,0.3672,0.368,0.3681,0.3683,0.3683,0.3673,0.3666,0.3646,0.3622,0.3607,0.3595,0.3575,0.3564,0.357,0.3568,0.3573,0.3577,0.3573,0.3596,0.3604,0.3522,0.3522,0.3522,0,0,0.3634,0.3649,0.3651,0.367,0.3674,0.3686,0.368,0.3687,0.3692,0.366,0.3652,0.3639,0.3608,0.3603,0.3596,0.3582,0.3611,0.3578,0.3583,0.3576,0.3598,0.3606,0.3613,0.3522,0.3522,0.3522,0,0,0.3625,0.3637,0.3646,0.366,0.3682,0.3689,0.3695,0.3701,0.3699,0.3695,0.3679,0.3676,0.3642,0.3634,0.3622,0.364,0.3639,0.3634,0.366,0.3683,0.369,0.3696,0.375,0.376,0.3635,0.3635,0.3635,0,0.3614,0.363,0.3648,0.3664,0.3678,0.3693,0.3706,0.3707,0.3705,0.3709,0.3697,0.3679,0.3657,0.366,0.3668,0.3654,0.3676,0.3643,0.3692,0.3698,0.3703,0.3756,0.3767,0.3638,0.3638,0.3637,0.3637,0,0.3616,0.3631,0.3637,0.3667,0.3685,0.3696,0.3717,0.3727,0.373,0.3733,0.374,0.372,0.3711,0.371,0.3691,0.372,0.373,0.3702,0.3682,0.3716,0.3769,0.378,0.3643,0.3642,0.3641,0.364,0,0,0.3579,0.363,0.3629,0.3648,0.369,0.3699,0.3725,0.3749,0.3763,0.3765,0.3782,0.3768,0.377,0.3757,0.3747,0.3761,0.3832,0.375,0.375,0.3814,0.3915,0.3974,0.3991,0.3818,0.3819,0.382,0.3951,0,0.3574,0.3608,0.3634,0.3659,0.3681,0.3712,0.3732,0.3758,0.3777,0.3796,0.3797,0.3802,0.3784,0.3789,0.3806,0.3816,0.3855,0.3801,0.3861,0.3864,0.392,0.4002,0.3936,0.4051,0.3961,0.3963,0.3964,0,0.3563,0.3595,0.3621,0.3669,0.3679,0.3693,0.3741,0.376,0.3801,0.3815,0.3838,0.3845,0.3874,0.3847,0.3907,0.3876,0.3905,0.3916,0.3921,0.3953,0.394,0.3993,0.4072,0.3785,0.3979,0.3978,0.3977,0,0.3532,0.3579,0.36,0.3615,0.3671,0.3684,0.3714,0.3762,0.3783,0.3833,0.3858,0.3893,0.3912,0.3946,0.3988,0.3951,0.4065,0.4013,0.4103,0.4109,0.4051,0.405,0.3863,0.4069,0.4069,0.4069,0.4068,0,0.3513,0.3524,0.3583,0.359,0.3612,0.3664,0.369,0.3724,0.3781,0.3804,0.3861,0.389,0.3934,0.4003,0.4029,0.4124,0.4108,0.4136,0.4151,0.4078,0.4077,0.3822,0.3748,0.4073,0.4072,0.4071,0.4071,0,0.3456,0.3497,0.3521,0.3579,0.3592,0.3604,0.3666,0.3683,0.3755,0.3794,0.3813,0.3903,0.3998,0.4078,0.4153,0.4187,0.4142,0.4295,0.4233,0.4238,0.4041,0.3978,0.386,0.376,0.4412,0.4414,0.4416,0,0.3422,0.3433,0.349,0.3496,0.3513,0.3548,0.3563,0.3646,0.3675,0.3789,0.3798,0.3928,0.402,0.4208,0.4291,0.4417,0.4203,0.4417,0.4324,0.4044,0.3983,0.3834,0.3745,0.4286,0.4286,0.4287,0.4287,0,0.3354,0.3376,0.3394,0.3425,0.3437,0.3462,0.3503,0.3531,0.3625,0.3706,0.3814,0.3916,0.4113,0.4228,0.4415,0.4458,0.4188,0.4435,0.4133,0.388,0.3715,0.362,0.4197,0.4293,0.4292,0.4292,0.4292,0.4291,0.3286,0.3284,0.3317,0.3333,0.3355,0.3373,0.3378,0.3448,0.3527,0.3619,0.3767,0.3907,0.4047,0.431,0.4339,0.4225,0.4236,0.4093,0.4053,0.3931,0.3781,0.4406,0.4519,0.452,0.4521,0.4521,0.4522,0,0.3197,0.3208,0.3222,0.3243,0.3242,0.3287,0.3323,0.3328,0.3401,0.3551,0.3685,0.3813,0.3901,0.3946,0.3943,0.3824,0.3676,0.3664,0.3348,0.329,0.3819,0.3749,0.3712,0.3712,0.3713,0.3713,0.3713,0.3714,0.3143,0.313,0.3147,0.3127,0.3141,0.3117,0.3128,0.316,0.3262,0.3348,0.3431,0.3508,0.3512,0.3489,0.3282,0.3233,0.2905,0.2926,0.2804,0.3047,0.3077,0.3105,0.3008,0.2817,0.2816,0.2152,0.2146,0.2142]},{"header":{"parameterUnit":"m.s-1","parameterCategory":2,"la1":30.2991,"la2":30.254,"lo1":-89.0895,"lo2":-89.0444,"dy":0.0017,"dx":0.0017,"nx":28,"ny":28,"refTime":"2025-12-25T03:00:00:Z","depth":"0","parameterNumber":3,"parameterNumberName":"V-component_of_CURRENTS"},"data":[0,0,0,0,0,0,0,0,0,0,0,0,0,0,0,0,0,0,0,0,0,0,0,0,0,0,0,0,0,0,0,0,0,0,0,0,0,0,0,0,0,0,0,0,0,0,0,0,0,0,0,0,0,0,0,0,0,0,-0.0805,-0.0805,0,-0.0866,-0.0866,-0.0867,-0.0889,-0.0889,-0.0889,-0.0889,-0.0963,-0.0965,-0.0967,0,0,0,0,0,0,0,0,0,0,0,0,0,-0.0738,-0.0739,-0.0804,-0.0805,-0.0806,-0.0866,-0.0866,-0.0867,-0.0889,-0.0889,-0.0889,-0.0889,-0.0963,-0.0965,-0.0968,0,0,0,0,0,0,0,0,0,0,0,0,0,-0.0778,-0.0739,-0.0804,-0.0826,-0.0828,-0.0865,-0.0866,-0.0867,-0.0889,-0.0889,-0.0889,-0.0889,-0.0962,-0.0965,-0.0968,-0.0989,0,0,-0.0977,-0.0979,0,0,0,0,0,0,0,0,-0.0776,-0.078,-0.0821,-0.0824,-0.0827,-0.0871,-0.087,-0.0909,-0.0889,-0.0864,-0.0889,-0.0888,-0.0935,-0.094,-0.0949,-0.0992,-0.0996,-0.0978,-0.0979,-0.0981,-0.0982,0,0,0,0,0,0,0,-0.0773,-0.0778,-0.0827,-0.0823,-0.0826,-0.0843,-0.0848,-0.0878,-0.0898,-0.0866,-0.0868,-0.0878,-0.0936,-0.0946,-0.0951,-0.0997,-0.0977,-0.098,-0.0982,-0.0983,-0.1059,-0.106,0,0,0,0,0,0,-0.0767,-0.0775,-0.0825,-0.0829,-0.0803,-0.0844,-0.085,-0.0856,-0.0898,-0.0904,-0.0878,-0.0879,-0.0941,-0.0948,-0.0954,-0.0966,-0.0981,-0.0984,-0.0985,-0.1059,-0.1059,-0.106,0,0,0,0,0,0,-0.0766,-0.0771,-0.0823,-0.0805,-0.0813,-0.0845,-0.0852,-0.0857,-0.0866,-0.0907,-0.0913,-0.0882,-0.0941,-0.095,-0.0977,-0.097,-0.0985,-0.0988,-0.1059,-0.1059,-0.1059,-0.1001,0,0,0,0,0,0,-0.0763,-0.077,-0.0771,-0.0805,-0.0814,-0.0839,-0.0852,-0.0858,-0.0873,-0.0875,-0.0913,-0.0919,-0.0942,-0.0972,-0.098,-0.0974,-0.099,-0.1059,-0.1059,-0.1059,-0.1002,-0.0999,-0.0996,0,0,0,0,0,-0.0761,-0.0761,-0.077,-0.0777,-0.0814,-0.0839,-0.0845,-0.0867,-0.0873,-0.0875,-0.0901,-0.0918,-0.098,-0.0975,-0.0984,-0.0979,-0.1059,-0.1059,-0.1059,-0.1004,-0.1,-0.0996,0,0,0,0,0,0,-0.0731,-0.0765,-0.0775,-0.0786,-0.0808,-0.0843,-0.0849,-0.0865,-0.0887,-0.0887,-0.0922,-0.0931,-0.0953,-0.0978,-0.0972,-0.1004,-0.1022,-0.1024,-0.0977,-0.0973,-0.097,-0.0936,-0.0993,0,0,0,0,0,-0.0726,-0.0736,-0.0769,-0.0776,-0.0786,-0.0816,-0.0829,-0.0843,-0.0869,-0.0878,-0.0906,-0.0936,-0.0963,-0.0976,-0.1005,-0.1023,-0.1026,-0.1027,-0.1024,-0.1021,-0.1,-0.1003,-0.0997,-0.1061,-0.1061,-0.1061,0,0,-0.0715,-0.0737,-0.0742,-0.0771,-0.079,-0.0797,-0.0823,-0.0838,-0.0839,-0.0884,-0.0894,-0.0928,-0.0967,-0.0984,-0.0996,-0.1003,-0.1005,-0.1021,-0.1018,-0.0999,-0.1002,-0.0996,-0.099,-0.1061,-0.1061,-0.1061,0,0,-0.0701,-0.0719,-0.0722,-0.0736,-0.0764,-0.0782,-0.0784,-0.0816,-0.0823,-0.0842,-0.0873,-0.0896,-0.0942,-0.096,-0.0977,-0.0975,-0.099,-0.0993,-0.0945,-0.0948,-0.0942,-0.0936,-0.093,-0.0925,-0.0988,-0.0988,-0.0988,0,-0.0686,-0.0695,-0.0725,-0.0729,-0.0735,-0.0772,-0.0767,-0.0782,-0.0817,-0.0817,-0.0837,-0.0887,-0.0924,-0.0933,-0.0934,-0.0964,-0.0966,-0.0954,-0.094,-0.0935,-0.0931,-0.0926,-0.0921,-0.0985,-0.0986,-0.0986,-0.0986,0,-0.0673,-0.0678,-0.0679,-0.0695,-0.0704,-0.0707,-0.073,-0.0738,-0.0754,-0.0769,-0.0782,-0.0827,-0.0854,-0.0874,-0.0904,-0.0896,-0.0907,-0.0936,-0.0942,-0.092,-0.0917,-0.0913,-0.0981,-0.0982,-0.0983,-0.0984,0,0,-0.064,-0.0665,-0.0663,-0.0656,-0.0683,-0.0683,-0.0685,-0.0691,-0.0678,-0.0711,-0.0694,-0.0745,-0.0767,-0.0787,-0.0828,-0.0829,-0.081,-0.0863,-0.0865,-0.0842,-0.0804,-0.0754,-0.0745,-0.0835,-0.0834,-0.0833,-0.0813,0,-0.0617,-0.0613,-0.0631,-0.0613,-0.0609,-0.0631,-0.0624,-0.0632,-0.0645,-0.064,-0.0672,-0.068,-0.0734,-0.0744,-0.0754,-0.0798,-0.0795,-0.0812,-0.0841,-0.0841,-0.0787,-0.0737,-0.063,-0.0597,-0.0809,-0.0808,-0.0807,0,-0.0593,-0.0595,-0.0576,-0.0565,-0.0562,-0.0555,-0.054,-0.0537,-0.0544,-0.0548,-0.0561,-0.0594,-0.0607,-0.0655,-0.0691,-0.0699,-0.074,-0.077,-0.077,-0.0735,-0.0782,-0.0656,-0.0581,-0.0724,-0.0801,-0.0801,-0.0802,0,-0.0551,-0.0547,-0.0527,-0.0525,-0.0525,-0.051,-0.0508,-0.051,-0.049,-0.0489,-0.0471,-0.0504,-0.0508,-0.056,-0.0632,-0.0661,-0.0659,-0.0714,-0.0702,-0.07,-0.0618,-0.0609,-0.0666,-0.0723,-0.0723,-0.0723,-0.0723,0,-0.0517,-0.0496,-0.0503,-0.049,-0.0448,-0.0465,-0.0422,-0.0421,-0.0409,-0.0365,-0.0419,-0.0389,-0.0483,-0.0505,-0.0585,-0.061,-0.0625,-0.0664,-0.0679,-0.0595,-0.0585,-0.0714,-0.0823,-0.0723,-0.0723,-0.0723,-0.0723,0,-0.047,-0.0479,-0.0448,-0.0439,-0.0427,-0.0396,-0.0366,-0.0332,-0.0331,-0.0274,-0.0267,-0.0291,-0.0304,-0.039,-0.0462,-0.0529,-0.0622,-0.0589,-0.0475,-0.0476,-0.0594,-0.0702,-0.075,-0.0802,-0.0561,-0.0559,-0.0558,0,-0.0446,-0.0429,-0.04,-0.0371,-0.0363,-0.0327,-0.0293,-0.0288,-0.0251,-0.0206,-0.0166,-0.0165,-0.0143,-0.0218,-0.0306,-0.039,-0.0553,-0.0382,-0.0417,-0.0555,-0.0689,-0.0772,-0.0821,-0.0293,-0.0289,-0.0287,-0.0284,0,-0.0395,-0.0385,-0.0359,-0.0307,-0.0264,-0.0214,-0.0173,-0.0127,-0.0102,-0.0038,0.0044,0.0068,0.0017,0.002,-0.0103,-0.0194,-0.0448,-0.0328,-0.0498,-0.0487,-0.0553,-0.0625,-0.0368,-0.026,-0.0262,-0.0264,-0.0265,-0.0266,-0.0349,-0.032,-0.0288,-0.0228,-0.0175,-0.0099,-0.0033,0.0027,0.0126,0.0273,0.0253,0.0423,0.0341,0.0215,0.0018,-0.021,-0.0293,-0.0278,-0.0398,-0.047,-0.0514,-0.0193,-0.0093,-0.0094,-0.0096,-0.0097,-0.0098,0,-0.0291,-0.0263,-0.0211,-0.0134,-0.0053,-0.0047,0.0056,0.0148,0.0303,0.0505,0.0626,0.0854,0.0664,0.0427,0.0097,-0.0195,-0.0351,-0.0387,-0.0498,-0.0548,-0.0262,-0.0244,-0.0138,-0.0138,-0.0138,-0.0138,-0.0138,-0.0137,-0.0257,-0.02,-0.0175,-0.0038,0.0024,0.0155,0.0231,0.038,0.0559,0.0925,0.1217,0.1383,0.1271,0.0383,-0.0222,-0.0382,-0.0671,-0.0679,-0.0884,-0.0717,-0.0718,-0.0718,-0.0727,-0.0724,-0.0725,-0.1077,-0.1081,-0.1084]}],[{"header":{"parameterUnit":"m.s-1","parameterCategory":2,"la1":30.2991,"la2":30.254,"lo1":-89.0895,"lo2":-89.0444,"dy":0.0017,"dx":0.0017,"nx":28,"ny":28,"refTime":"2025-12-25T03:00:00:Z","depth":"2","parameterNumber":2,"parameterNumberName":"U-component_of_CURRENTS"},"data":[0,0,0,0,0,0,0,0,0,0,0,0,0,0,0,0,0,0,0,0,0,0,0,0,0,0,0,0,0,0,0,0,0,0,0,0,0,0,0,0,0,0,0,0,0,0,0,0,0,0,0,0,0,0,0,0,0,0,0.1964,0.1964,0,0.1957,0.1957,0.1958,0.1995,0.1995,0.1996,0.1997,0.1955,0.1953,0.1951,0,0,0,0,0,0,0,0,0,0,0,0,0,0.1967,0.1967,0.1964,0.1963,0.1963,0.1957,0.1957,0.1958,0.1995,0.1995,0.1996,0.1997,0.1955,0.1953,0.1951,0,0,0,0,0,0,0,0,0,0,0,0,0,0.1969,0.1967,0.1964,0.1977,0.1977,0.1957,0.1957,0.1958,0.1995,0.1996,0.1996,0.1997,0.1956,0.1953,0.1951,0.1919,0,0,0.1943,0.1942,0,0,0,0,0,0,0,0,0.1968,0.1969,0.1975,0.1976,0.1976,0.1973,0.1943,0.1941,0.1994,0.1994,0.1997,0.1998,0.1953,0.1951,0.1956,0.1917,0.1915,0.1943,0.1942,0.1941,0.194,0,0,0,0,0,0,0,0.1968,0.1969,0.1967,0.1974,0.1975,0.1967,0.197,0.1943,0.1973,0.1994,0.1995,0.1985,0.1954,0.1959,0.1955,0.1915,0.1943,0.1941,0.194,0.1939,0.1991,0.1994,0,0,0,0,0,0,0.1959,0.1969,0.1967,0.1966,0.1968,0.1966,0.1969,0.1978,0.1974,0.1973,0.1985,0.1987,0.1962,0.1958,0.1954,0.2011,0.1941,0.1938,0.1937,0.1988,0.1992,0.1995,0,0,0,0,0,0,0.196,0.196,0.1967,0.1962,0.1962,0.1965,0.1974,0.1977,0.2021,0.1966,0.1966,0.203,0.1963,0.1957,0.1974,0.2006,0.1937,0.1935,0.1985,0.1989,0.1993,0.2064,0,0,0,0,0,0,0.196,0.1961,0.1972,0.1962,0.1961,0.1975,0.1973,0.1976,0.2008,0.2013,0.2003,0.1998,0.1963,0.1978,0.1972,0.2001,0.1933,0.1981,0.1987,0.1992,0.2058,0.207,0.208,0,0,0,0,0,0.1961,0.1961,0.1973,0.1972,0.1975,0.1975,0.1976,0.1983,0.201,0.2029,0.2038,0.2001,0.2008,0.1978,0.197,0.1999,0.1978,0.1985,0.1991,0.2053,0.2068,0.208,0,0,0,0,0,0,0.1976,0.1964,0.1977,0.1979,0.1988,0.1979,0.1991,0.2009,0.2034,0.2046,0.2021,0.2017,0.2044,0.2023,0.1991,0.2038,0.1993,0.1998,0.2043,0.2057,0.2068,0.2105,0.1931,0,0,0,0,0,0.1981,0.1984,0.1979,0.199,0.1996,0.201,0.2017,0.2023,0.2033,0.2049,0.2045,0.2051,0.2058,0.206,0.2051,0.2066,0.2074,0.209,0.2102,0.2111,0.2141,0.2178,0.2195,0.2016,0.2016,0.2016,0,0,0.1985,0.1985,0.1985,0.1993,0.2007,0.2023,0.202,0.2037,0.2061,0.2035,0.2081,0.2082,0.2074,0.2095,0.2108,0.2084,0.2169,0.2119,0.2127,0.2153,0.2186,0.2203,0.2219,0.202,0.2019,0.2019,0,0,0.1993,0.2009,0.2012,0.2023,0.2035,0.2046,0.2065,0.2079,0.21,0.2134,0.2132,0.2166,0.2168,0.2172,0.2175,0.2248,0.2225,0.2253,0.2334,0.2369,0.2383,0.2396,0.2431,0.2447,0.2259,0.2259,0.2259,0,0.2011,0.2015,0.2016,0.2029,0.2043,0.207,0.2091,0.2113,0.2134,0.2164,0.216,0.225,0.2208,0.2281,0.2295,0.227,0.2295,0.2272,0.2381,0.2394,0.2406,0.2439,0.2455,0.2263,0.2263,0.2263,0.2262,0,0.2003,0.2031,0.2041,0.2075,0.2091,0.2114,0.2135,0.2173,0.2215,0.2242,0.2337,0.2336,0.2396,0.2388,0.235,0.2435,0.2428,0.2385,0.234,0.2428,0.2458,0.2473,0.2269,0.2268,0.2267,0.2266,0,0,0.2014,0.2032,0.2049,0.2071,0.2117,0.2129,0.2186,0.2243,0.2311,0.2368,0.2458,0.2496,0.2539,0.255,0.2542,0.2569,0.2633,0.2518,0.2518,0.2542,0.2732,0.2621,0.2626,0.2614,0.2617,0.2619,0.2718,0,0.2033,0.2054,0.2065,0.2122,0.214,0.2184,0.2243,0.2298,0.2364,0.2447,0.2514,0.2589,0.2591,0.2628,0.2671,0.2627,0.2679,0.2612,0.2654,0.2656,0.2536,0.2642,0.2448,0.2511,0.2733,0.2736,0.2738,0,0.2024,0.205,0.2086,0.215,0.2168,0.2217,0.2328,0.238,0.2497,0.2552,0.2687,0.2722,0.2808,0.2768,0.2861,0.2825,0.2803,0.2782,0.2784,0.2671,0.2574,0.246,0.253,0.2763,0.2761,0.2759,0.2757,0,0.2001,0.2067,0.2099,0.2117,0.2194,0.2245,0.2313,0.2429,0.249,0.2635,0.2713,0.2843,0.2894,0.2941,0.2909,0.2889,0.2973,0.2923,0.2838,0.283,0.2669,0.264,0.3004,0.3003,0.3003,0.3003,0.3003,0,0.1992,0.2026,0.2103,0.2115,0.2203,0.2259,0.2374,0.2459,0.2587,0.2652,0.2793,0.2878,0.2935,0.2976,0.2961,0.2958,0.3032,0.2891,0.286,0.2687,0.2661,0.2874,0.2857,0.3007,0.3006,0.3005,0.3004,0,0.1954,0.1991,0.2033,0.2133,0.2182,0.225,0.2392,0.2456,0.2619,0.2708,0.2751,0.2898,0.2961,0.3018,0.3029,0.3,0.2996,0.297,0.2764,0.2706,0.2827,0.2814,0.2919,0.2916,0.2914,0.2912,0.291,0,0.1909,0.1948,0.2042,0.2082,0.2139,0.2253,0.2315,0.2458,0.2506,0.27,0.271,0.2836,0.2854,0.2924,0.2893,0.2901,0.2957,0.2707,0.2623,0.2866,0.2825,0.2815,0.2805,0.245,0.2444,0.244,0.2436,0,0.1891,0.1946,0.1981,0.2049,0.2114,0.2188,0.228,0.2321,0.2445,0.2508,0.2564,0.2599,0.27,0.2607,0.2647,0.2626,0.2691,0.2616,0.2945,0.248,0.2425,0.2383,0.2389,0.2398,0.2402,0.2404,0.2406,0.2408,0.189,0.1891,0.1941,0.2009,0.2082,0.2117,0.2098,0.214,0.2167,0.2189,0.2311,0.2297,0.2362,0.2313,0.2282,0.2302,0.247,0.2373,0.2387,0.2405,0.2312,0.2253,0.2178,0.2181,0.2183,0.2185,0.2186,0,0.1837,0.185,0.19,0.1915,0.1924,0.2026,0.2043,0.1962,0.1873,0.1926,0.191,0.1807,0.1806,0.1919,0.1883,0.1905,0.1899,0.1848,0.1822,0.1863,0.1898,0.1779,0.1504,0.1502,0.1499,0.1497,0,0,0.179,0.1777,0.1778,0.1763,0.1794,0.1723,0.17,0.1599,0.1576,0.1483,0.1452,0.1611,0.1774,0.1554,0.1591,0.1528,0.1667,0.1482,0.2033,0.2037,0.2068,0.2215,0.2078,0,0,0,0,0]},{"header":{"parameterUnit":"m.s-1","parameterCategory":2,"la1":30.2991,"la2":30.254,"lo1":-89.0895,"lo2":-89.0444,"dy":0.0017,"dx":0.0017,"nx":28,"ny":28,"refTime":"2025-12-25T03:00:00:Z","depth":"2","parameterNumber":3,"parameterNumberName":"V-component_of_CURRENTS"},"data":[0,0,0,0,0,0,0,0,0,0,0,0,0,0,0,0,0,0,0,0,0,0,0,0,0,0,0,0,0,0,0,0,0,0,0,0,0,0,0,0,0,0,0,0,0,0,0,0,0,0,0,0,0,0,0,0,0,0,0.0444,0.0443,0,0.0391,0.039,0.0389,0.0341,0.0341,0.0341,0.0341,0.0257,0.0255,0.0253,0,0,0,0,0,0,0,0,0,0,0,0,0,0.046,0.046,0.0444,0.0443,0.0443,0.0391,0.039,0.0389,0.0341,0.0341,0.0341,0.0341,0.0258,0.0256,0.0253,0,0,0,0,0,0,0,0,0,0,0,0,0,0.0431,0.046,0.0444,0.0416,0.0413,0.0391,0.039,0.0389,0.0341,0.0341,0.0341,0.034,0.0259,0.0256,0.0253,0.0241,0,0,0.0244,0.0242,0,0,0,0,0,0,0,0,0.0433,0.043,0.042,0.0418,0.0415,0.0376,0.0365,0.0339,0.0342,0.0365,0.0341,0.034,0.0297,0.0291,0.0277,0.0237,0.0234,0.0243,0.0242,0.024,0.024,0,0,0,0,0,0,0,0.0435,0.0432,0.0419,0.042,0.0417,0.0391,0.0387,0.036,0.033,0.0363,0.036,0.036,0.0294,0.028,0.0274,0.0233,0.0244,0.0241,0.0239,0.0238,0.016,0.016,0,0,0,0,0,0,0.0452,0.0434,0.0421,0.0418,0.0427,0.0392,0.0387,0.0385,0.0331,0.0323,0.0361,0.0358,0.0285,0.0278,0.0271,0.0255,0.024,0.0238,0.0236,0.016,0.016,0.0159,0,0,0,0,0,0,0.0452,0.0451,0.0423,0.0428,0.0423,0.0393,0.0391,0.0385,0.037,0.033,0.0321,0.0354,0.0284,0.0275,0.0244,0.0252,0.0236,0.0233,0.016,0.016,0.016,0.0223,0,0,0,0,0,0,0.0453,0.0451,0.0451,0.0429,0.0423,0.0416,0.0392,0.0384,0.0373,0.0369,0.0322,0.0313,0.0283,0.0249,0.0241,0.0247,0.0231,0.0161,0.016,0.016,0.0221,0.0225,0.0228,0,0,0,0,0,0.0453,0.0456,0.0451,0.0449,0.0425,0.0417,0.0411,0.0386,0.0373,0.037,0.0333,0.0315,0.024,0.0246,0.0237,0.0243,0.0161,0.016,0.016,0.022,0.0224,0.0228,0,0,0,0,0,0,0.0456,0.0451,0.0445,0.0443,0.0436,0.0411,0.0403,0.0391,0.0359,0.0352,0.0311,0.03,0.0275,0.0247,0.0255,0.0216,0.0197,0.0195,0.0246,0.025,0.0253,0.0276,0.0229,0,0,0,0,0,0.0461,0.0464,0.0454,0.0453,0.045,0.0428,0.042,0.0408,0.0382,0.0367,0.0337,0.0299,0.0265,0.0249,0.0215,0.0197,0.0175,0.0193,0.0196,0.0199,0.0211,0.018,0.0182,0.0157,0.0157,0.0157,0,0,0.0462,0.046,0.046,0.0455,0.0442,0.0447,0.0421,0.0414,0.0417,0.0364,0.0349,0.031,0.0261,0.0238,0.0225,0.0217,0.0194,0.0199,0.0202,0.0212,0.018,0.0183,0.0185,0.0157,0.0157,0.0157,0,0,0.0475,0.0464,0.0475,0.0473,0.0468,0.0457,0.0461,0.0442,0.043,0.0413,0.0373,0.0341,0.0293,0.0263,0.024,0.0241,0.0211,0.0228,0.0266,0.0237,0.0239,0.0241,0.0218,0.0217,0.0231,0.0231,0.0232,0,0.0477,0.0493,0.0476,0.0488,0.0494,0.0468,0.0485,0.0468,0.0444,0.0443,0.0416,0.0354,0.0306,0.0287,0.0277,0.0251,0.0231,0.0259,0.0244,0.0245,0.0245,0.0221,0.022,0.0234,0.0234,0.0234,0.0233,0,0.0509,0.0516,0.0521,0.0532,0.0532,0.0542,0.0528,0.0524,0.0506,0.0495,0.0473,0.0409,0.0377,0.0351,0.0308,0.0294,0.0276,0.0252,0.0241,0.0252,0.0225,0.0223,0.0239,0.0238,0.0237,0.0236,0,0,0.0527,0.0543,0.0544,0.0564,0.0561,0.0571,0.0572,0.0579,0.0599,0.0555,0.0572,0.0493,0.0467,0.0438,0.0386,0.0352,0.0324,0.0306,0.0303,0.0296,0.0265,0.0222,0.0215,0.0298,0.0298,0.0298,0.0245,0,0.056,0.0603,0.0596,0.0634,0.0657,0.0639,0.0652,0.0651,0.0642,0.0649,0.0586,0.0576,0.0499,0.0487,0.0438,0.0358,0.0319,0.0341,0.0243,0.024,0.0212,0.0211,0.0207,0.0157,0.0242,0.0242,0.0241,0,0.0597,0.0626,0.0671,0.0706,0.0714,0.0733,0.0765,0.0774,0.0767,0.076,0.0735,0.0691,0.0634,0.0565,0.0445,0.0463,0.0367,0.0299,0.0295,0.0234,0.0192,0.0156,0.0148,0.0236,0.0237,0.0237,0.0238,0,0.0639,0.0677,0.0721,0.0733,0.0763,0.0785,0.0803,0.0814,0.0845,0.0839,0.0867,0.0786,0.0764,0.0636,0.0478,0.0464,0.0344,0.031,0.0185,0.0181,0.0148,0.0141,0.0222,0.0222,0.0222,0.0222,0.0222,0,0.0679,0.0712,0.075,0.0777,0.0841,0.0843,0.0911,0.0915,0.095,0.1007,0.0934,0.0958,0.078,0.0687,0.0523,0.0349,0.0376,0.0195,0.0164,0.0168,0.0164,0.0208,0.0207,0.022,0.022,0.0221,0.0221,0,0.0703,0.0725,0.0784,0.0838,0.086,0.0907,0.0985,0.1046,0.1065,0.1138,0.1144,0.1092,0.0972,0.0785,0.0583,0.0425,0.0251,0.0177,0.0195,0.0165,0.0098,0.0101,0.0045,0.0043,0.0042,0.004,0.0039,0,0.0721,0.0751,0.0831,0.0879,0.0905,0.098,0.1045,0.1092,0.1167,0.1223,0.1271,0.1189,0.1122,0.0818,0.0534,0.0254,0.0234,0.0074,0.0034,0.0104,0.0079,0.0085,0.009,0.0017,0.0015,0.0014,0.0014,0,0.0756,0.078,0.0836,0.0935,0.1013,0.1109,0.1207,0.1293,0.1361,0.1398,0.144,0.1386,0.1113,0.0813,0.0441,0.0254,0.0115,0.0043,0.0116,0.0059,0.0072,0.0049,0.0056,0.0005,0.0005,0.0006,0.0007,0.0007,0.0785,0.0832,0.0912,0.1007,0.1096,0.1239,0.1335,0.1428,0.1528,0.1579,0.1533,0.1415,0.1128,0.0615,0.0326,0.0035,0.0051,-0.007,-0.0065,-0.0059,-0.0055,-0.0047,-0.0135,-0.0135,-0.0135,-0.0135,-0.0135,0,0.0825,0.089,0.0982,0.111,0.1219,0.1262,0.144,0.1517,0.1614,0.1599,0.1556,0.1237,0.091,0.0606,0.0155,-0.0113,-0.0118,-0.0185,-0.0137,-0.0127,-0.0119,-0.0116,-0.0214,-0.0214,-0.0215,-0.0215,0,0,0.0852,0.0946,0.1004,0.1195,0.1286,0.1439,0.1548,0.1613,0.1628,0.1574,0.1458,0.1317,0.0957,0.0617,0.0271,0.0027,0.0013,-0.0019,0.0066,0.0171,0.0183,-0.0038,-0.0023,0,0,0,0,0]}],[{"header":{"parameterUnit":"m.s-1","parameterCategory":2,"la1":30.2991,"la2":30.254,"lo1":-89.0895,"lo2":-89.0444,"dy":0.0017,"dx":0.0017,"nx":28,"ny":28,"refTime":"2025-12-25T03:00:00:Z","depth":"4","parameterNumber":2,"parameterNumberName":"U-component_of_CURRENTS"},"data":[0,0,0,0,0,0,0,0,0,0,0,0,0,0,0,0,0,0,0,0,0,0,0,0,0,0,0,0,0,0,0,0,0,0,0,0,0,0,0,0,0,0,0,0,0,0,0,0,0,0,0,0,0,0,0,0,0,0,0.089,0.0891,0,0.0909,0.0909,0.0909,0.0935,0.0936,0.0937,0.0937,0.0992,0.0993,0.0993,0,0,0,0,0,0,0,0,0,0,0,0,0,0.0852,0.0852,0.089,0.0891,0.0891,0.0909,0.0909,0.0909,0.0935,0.0936,0.0937,0.0937,0.0991,0.0992,0.0993,0,0,0,0,0,0,0,0,0,0,0,0,0,0.0867,0.0853,0.089,0.0908,0.091,0.0909,0.0909,0.0909,0.0935,0.0936,0.0937,0.0938,0.0991,0.0992,0.0994,0.0982,0,0,0.0998,0.0998,0,0,0,0,0,0,0,0,0.0866,0.0868,0.0905,0.0907,0.0909,0.0923,0.0916,0.0936,0.0935,0.0923,0.0937,0.0938,0.0973,0.0976,0.0973,0.0985,0.0987,0.0998,0.0998,0.0999,0.0999,0,0,0,0,0,0,0,0.0865,0.0868,0.0896,0.0905,0.0908,0.0907,0.091,0.0919,0.0941,0.0924,0.0927,0.0932,0.0974,0.0972,0.0975,0.0988,0.0998,0.0999,0.1,0.1,0.1101,0.1103,0,0,0,0,0,0,0.0868,0.0867,0.0895,0.0896,0.0892,0.0907,0.091,0.0916,0.094,0.0945,0.0931,0.0933,0.0969,0.0973,0.0977,0.1042,0.0999,0.1,0.1001,0.1099,0.1101,0.1103,0,0,0,0,0,0,0.0867,0.087,0.0894,0.0884,0.0887,0.0907,0.0912,0.0916,0.0937,0.0946,0.0951,0.0953,0.097,0.0975,0.1018,0.1041,0.1001,0.1002,0.1097,0.11,0.1102,0.1122,0,0,0,0,0,0,0.0866,0.087,0.0883,0.0884,0.0888,0.091,0.0912,0.0915,0.0938,0.0942,0.0965,0.097,0.0971,0.1016,0.1019,0.1042,0.1003,0.1094,0.1098,0.1101,0.1119,0.1126,0.1131,0,0,0,0,0,0.0864,0.0875,0.0883,0.0887,0.0903,0.0911,0.0913,0.0929,0.0939,0.0951,0.0978,0.097,0.1042,0.1019,0.1022,0.1046,0.1092,0.1097,0.1101,0.1117,0.1124,0.1131,0,0,0,0,0,0,0.0861,0.0879,0.0888,0.0903,0.0916,0.0917,0.0934,0.094,0.0967,0.0982,0.0988,0.0995,0.104,0.1047,0.1021,0.109,0.1068,0.1073,0.1079,0.1087,0.1092,0.1098,0.1004,0,0,0,0,0,0.0867,0.0887,0.0895,0.0912,0.0921,0.0931,0.0941,0.0951,0.097,0.0983,0.1002,0.1031,0.1055,0.1075,0.1095,0.1128,0.1139,0.1151,0.1156,0.1161,0.1171,0.1218,0.1228,0.1117,0.1117,0.1117,0,0,0.0873,0.0885,0.0897,0.0914,0.0927,0.0942,0.094,0.0963,0.0983,0.0985,0.1032,0.1049,0.107,0.1109,0.1131,0.1121,0.1197,0.1166,0.117,0.1178,0.1223,0.1234,0.1243,0.112,0.112,0.1119,0,0,0.0883,0.0904,0.0921,0.0935,0.096,0.0966,0.0978,0.0996,0.1016,0.1054,0.1066,0.1105,0.1139,0.116,0.1173,0.1226,0.1224,0.1236,0.1271,0.1316,0.1325,0.1333,0.1348,0.1357,0.1242,0.1242,0.1242,0,0.0889,0.0908,0.0927,0.0944,0.0959,0.098,0.0995,0.1018,0.1051,0.1073,0.108,0.1149,0.1164,0.1211,0.1234,0.1237,0.1256,0.1235,0.1322,0.133,0.1338,0.1352,0.1362,0.1243,0.1243,0.1243,0.1243,0,0.0901,0.0927,0.094,0.0972,0.099,0.101,0.1038,0.1073,0.1101,0.112,0.118,0.1206,0.125,0.126,0.1264,0.1329,0.1321,0.1317,0.1297,0.135,0.1361,0.1371,0.1246,0.1245,0.1245,0.1244,0,0,0.0876,0.0937,0.0942,0.0966,0.1006,0.102,0.1069,0.1108,0.1153,0.119,0.1246,0.1286,0.1308,0.1327,0.1339,0.1378,0.1442,0.1379,0.1381,0.1381,0.153,0.1422,0.1422,0.1457,0.146,0.1462,0.1509,0,0.0877,0.0912,0.0944,0.0987,0.1004,0.105,0.1096,0.1142,0.1189,0.1254,0.1289,0.135,0.1331,0.137,0.1403,0.1445,0.1473,0.1429,0.149,0.1491,0.1379,0.1432,0.1469,0.1516,0.1519,0.152,0.1521,0,0.0867,0.0892,0.0928,0.1,0.1015,0.1052,0.1131,0.118,0.127,0.1313,0.1371,0.1407,0.1478,0.1459,0.1536,0.1513,0.1527,0.1543,0.1545,0.1446,0.1402,0.1458,0.1539,0.1538,0.1537,0.1535,0.1534,0,0.0822,0.0883,0.0914,0.0934,0.1014,0.1056,0.1111,0.1197,0.1252,0.1366,0.142,0.149,0.1549,0.1585,0.1611,0.1594,0.1686,0.1663,0.1567,0.1559,0.163,0.1621,0.1714,0.1714,0.1714,0.1713,0.1713,0,0.0796,0.0825,0.0904,0.0921,0.0978,0.1046,0.1124,0.1198,0.1304,0.1372,0.1455,0.1507,0.1591,0.1641,0.1647,0.1635,0.1713,0.1583,0.1573,0.1636,0.1627,0.1636,0.1626,0.1715,0.1715,0.1714,0.1714,0,0.0744,0.0796,0.0839,0.0927,0.0962,0.1007,0.1129,0.1185,0.1299,0.1395,0.144,0.1551,0.1617,0.1663,0.1731,0.1673,0.1681,0.165,0.1711,0.1701,0.1512,0.1503,0.1554,0.1551,0.1548,0.1546,0.1544,0,0.072,0.0733,0.0831,0.0861,0.0907,0.0985,0.1043,0.1171,0.1227,0.1395,0.1429,0.1543,0.1597,0.1602,0.1655,0.166,0.1632,0.162,0.1565,0.1515,0.1501,0.1496,0.1491,0.154,0.1539,0.1538,0.1537,0,0.0658,0.0704,0.0739,0.0801,0.0863,0.0927,0.1019,0.1054,0.1203,0.1317,0.1394,0.1439,0.1504,0.1538,0.1557,0.1551,0.1626,0.1591,0.1596,0.1544,0.1498,0.1485,0.1484,0.1528,0.1529,0.153,0.1531,0,0.0614,0.0622,0.0676,0.0729,0.0796,0.0845,0.0909,0.0983,0.1061,0.1251,0.1266,0.1386,0.1491,0.1481,0.1495,0.149,0.146,0.1404,0.1418,0.1429,0.1364,0.1285,0.1251,0,0,0,0,0,0.057,0.057,0.06,0.0654,0.0717,0.0766,0.0878,0.0944,0.1088,0.1114,0.1192,0.1249,0.1297,0.1347,0.1315,0.1416,0.1449,0.1371,0.1388,0.1475,0.1486,0.142,0,0,0,0,0,0,0.0536,0.0553,0.0567,0.0575,0.0602,0.0669,0.074,0.0842,0.0863,0.1014,0.1044,0.1161,0.1216,0.1299,0.1286,0.13,0.1283,0.1444,0.144,0.1469,0.1479,0.1488,0.1423,0,0,0,0,0]},{"header":{"parameterUnit":"m.s-1","parameterCategory":2,"la1":30.2991,"la2":30.254,"lo1":-89.0895,"lo2":-89.0444,"dy":0.0017,"dx":0.0017,"nx":28,"ny":28,"refTime":"2025-12-25T03:00:00:Z","depth":"4","parameterNumber":3,"parameterNumberName":"V-component_of_CURRENTS"},"data":[0,0,0,0,0,0,0,0,0,0,0,0,0,0,0,0,0,0,0,0,0,0,0,0,0,0,0,0,0,0,0,0,0,0,0,0,0,0,0,0,0,0,0,0,0,0,0,0,0,0,0,0,0,0,0,0,0,0,0.0324,0.0323,0,0.0301,0.03,0.03,0.0299,0.03,0.03,0.03,0.0268,0.0267,0.0266,0,0,0,0,0,0,0,0,0,0,0,0,0,0.0341,0.034,0.0324,0.0323,0.0323,0.0301,0.03,0.03,0.0299,0.03,0.03,0.03,0.0268,0.0267,0.0265,0,0,0,0,0,0,0,0,0,0,0,0,0,0.0328,0.034,0.0324,0.0319,0.0318,0.0301,0.03,0.03,0.0299,0.03,0.03,0.03,0.0268,0.0267,0.0265,0.025,0,0,0.0261,0.026,0,0,0,0,0,0,0,0,0.0329,0.0327,0.032,0.0319,0.0319,0.0302,0.0294,0.0282,0.0299,0.0308,0.03,0.03,0.0277,0.0275,0.0272,0.0248,0.0247,0.026,0.0259,0.0259,0.0258,0,0,0,0,0,0,0,0.033,0.0328,0.0316,0.032,0.0319,0.0309,0.0308,0.0292,0.0292,0.0307,0.0307,0.0302,0.0277,0.0273,0.0271,0.0247,0.026,0.0259,0.0258,0.0257,0.0215,0.0215,0,0,0,0,0,0,0.0332,0.0329,0.0316,0.0315,0.0323,0.0308,0.0307,0.0308,0.0292,0.029,0.0302,0.0302,0.0276,0.0273,0.027,0.0265,0.0259,0.0257,0.0256,0.0216,0.0215,0.0215,0,0,0,0,0,0,0.0332,0.0331,0.0317,0.032,0.0318,0.0308,0.0309,0.0307,0.0311,0.0288,0.0286,0.0308,0.0276,0.0272,0.0262,0.0263,0.0257,0.0255,0.0216,0.0216,0.0215,0.0245,0,0,0,0,0,0,0.0333,0.0331,0.0336,0.0321,0.0318,0.0313,0.0308,0.0307,0.0307,0.0307,0.0292,0.0289,0.0276,0.0265,0.0261,0.0261,0.0254,0.0216,0.0216,0.0215,0.0245,0.0246,0.0247,0,0,0,0,0,0.0334,0.0337,0.0337,0.0335,0.0324,0.0313,0.0311,0.0305,0.0307,0.031,0.03,0.029,0.026,0.0263,0.0259,0.0258,0.0216,0.0216,0.0215,0.0244,0.0246,0.0247,0,0,0,0,0,0,0.0345,0.0337,0.0336,0.0337,0.0329,0.0313,0.0315,0.031,0.0304,0.0308,0.0289,0.0285,0.0276,0.0262,0.0266,0.0244,0.0235,0.0234,0.0259,0.026,0.0262,0.0267,0.0253,0,0,0,0,0,0.035,0.0354,0.0341,0.0343,0.0341,0.033,0.0327,0.0323,0.0313,0.0312,0.03,0.0285,0.0268,0.0262,0.0246,0.0235,0.0207,0.023,0.0232,0.0233,0.0234,0.0188,0.0186,0.0214,0.0214,0.0214,0,0,0.0353,0.0351,0.0352,0.0346,0.0341,0.0342,0.033,0.0328,0.0329,0.0308,0.0309,0.0291,0.0267,0.0255,0.0249,0.0245,0.021,0.0233,0.0234,0.0234,0.0187,0.0185,0.0182,0.0214,0.0214,0.0214,0,0,0.0363,0.0362,0.037,0.0367,0.0363,0.0354,0.0357,0.0345,0.0343,0.0337,0.0321,0.0303,0.0284,0.0264,0.0251,0.0249,0.022,0.0246,0.0258,0.0214,0.0211,0.0208,0.0171,0.0164,0.0246,0.0246,0.0246,0,0.0369,0.0378,0.0369,0.0376,0.0378,0.0363,0.0371,0.0363,0.035,0.0346,0.0343,0.0304,0.0286,0.0263,0.0264,0.0253,0.0225,0.0256,0.0216,0.0213,0.0209,0.0171,0.0164,0.0248,0.0248,0.0248,0.0247,0,0.0383,0.0393,0.0398,0.0405,0.0402,0.0408,0.0395,0.0394,0.0389,0.0375,0.0355,0.0325,0.0302,0.0291,0.0279,0.0247,0.0234,0.0224,0.0213,0.0208,0.0168,0.016,0.025,0.0249,0.0249,0.0249,0,0,0.0391,0.0407,0.041,0.0424,0.0421,0.0423,0.0423,0.0415,0.0418,0.0394,0.0387,0.035,0.0331,0.0315,0.029,0.0252,0.0206,0.0233,0.023,0.0199,0.0111,0.0103,0.0093,0.0188,0.0187,0.0186,0.0093,0,0.0409,0.0436,0.0434,0.0457,0.047,0.046,0.0464,0.0454,0.0439,0.0427,0.0384,0.0369,0.0341,0.0334,0.0288,0.0231,0.0186,0.0233,0.0117,0.0114,0.011,0.0084,0.0182,0.0087,0.0085,0.0083,0.0082,0,0.0423,0.0443,0.0474,0.0496,0.05,0.0513,0.0518,0.0519,0.0491,0.0479,0.0443,0.0409,0.0355,0.0334,0.0218,0.025,0.0183,0.0132,0.0127,0.0103,0.0091,0.0091,0.0067,0.0068,0.0069,0.007,0.0071,0,0.0439,0.0468,0.05,0.0508,0.0527,0.0544,0.0555,0.0541,0.055,0.0515,0.051,0.0433,0.0404,0.0306,0.0202,0.0208,0.0069,0.0063,-0.0012,-0.0014,0.001,0.0013,-0.0029,-0.0029,-0.0028,-0.0028,-0.0028,0,0.0455,0.048,0.0519,0.0537,0.0581,0.0581,0.0617,0.061,0.0606,0.0614,0.0546,0.0522,0.0395,0.0303,0.0202,0.0069,0.0064,-0.0019,-0.0043,0.0025,0.0031,0.0004,0.0009,-0.0032,-0.0031,-0.003,-0.003,0,0.0463,0.0487,0.0531,0.0573,0.0593,0.0627,0.0676,0.0697,0.0685,0.069,0.0684,0.0587,0.0461,0.0326,0.0161,0.0077,-0.0051,-0.0099,-0.0016,-0.0032,-0.0104,-0.0096,-0.0192,-0.0194,-0.0195,-0.0195,-0.0196,0,0.047,0.0496,0.0566,0.0602,0.0629,0.0684,0.0724,0.074,0.0756,0.0725,0.0722,0.0612,0.053,0.0292,0.0142,-0.0062,-0.0088,-0.0155,-0.0134,-0.011,-0.0123,-0.0114,-0.0105,-0.0198,-0.0198,-0.0198,-0.0198,0,0.0482,0.0514,0.055,0.0631,0.0689,0.075,0.0802,0.0819,0.0827,0.0822,0.0751,0.0626,0.0477,0.0289,0.0127,-0.0018,-0.0111,-0.0166,-0.0164,-0.0145,-0.0117,-0.0127,-0.0118,-0.0202,-0.0201,-0.0201,-0.0201,0,0.0492,0.0524,0.058,0.0649,0.0723,0.0783,0.0815,0.0831,0.0848,0.0813,0.0786,0.063,0.054,0.0309,0.016,0.0016,-0.0019,-0.0058,-0.0063,-0.0061,0.0004,0.0061,0.0002,0,0,0,0,0,0.0496,0.0531,0.0594,0.0666,0.074,0.0789,0.0847,0.0868,0.0878,0.084,0.0817,0.068,0.0449,0.0337,0.0192,0.0131,-0.0051,-0.0045,-0.01,-0.0221,-0.0217,-0.0162,0,0,0,0,0,0,0.0495,0.0549,0.0586,0.0668,0.0722,0.0806,0.0848,0.086,0.0831,0.0818,0.0694,0.0647,0.0416,0.0538,0.0191,0.0145,0.009,-0.0149,-0.0153,-0.0223,-0.0219,-0.0216,-0.0159,0,0,0,0,0]}]]